Terminal Aerodrome Forecast
Issued by NWS Key West, FL

Home | Current Version | Previous Version | Text Only | Print | Product List | Glossary On
Versions: 1 2 3 4 5 6 7 8 9 10 11 12 13 14 15 16 17 18 19 20 21 22 23 24 25 26 27 28 29 30 31 32 33 34 35 36 37 38 39 40 41 42 43 44
233
FTUS42 KKEY 240912 AAB
TAFEYW
TAF AMD
KEYW 240912Z 2409/2506 07009KT P6SM FEW020 SCT050
      TEMPO 2410/2412 05012G20KT 4SM SHRA BKN015 BKN020
     FM241200 06012G22KT P6SM SCT020 SCT050
     FM241800 09013G20KT P6SM FEW030=

USA.gov is the U.S. government's official web portal to all federal, state and local government web resources and services.